{"data":{"norad_id":61208,"intl_designator":"2024-171J","name":"STARLINK-11291 [DTC]","alt_names":[],"object_type":"PAYLOAD","status":"ACTIVE","operator":null,"country":"US","launch_date":"2024-09-20","launch_site_code":"AFWTR","launch_vehicle":null,"mission":null,"orbit_class":"UNKNOWN","rcs_meters":null,"size_class":null,"mass_kg":null,"dimensions":null,"purposes":["comms"],"wikipedia_slug":null,"has_3d_model":false,"image_url":null,"decayed_at":null,"tle_current":{"epoch":"2026-05-24T11:09:06.582528Z","epoch_age_seconds":131788,"freshness":"FRESH","line1":"1 61208U 24171J   26144.46465952 -.00010761  00000+0 -83917-4 0  9998","line2":"2 61208  53.1582 162.4529 0000391  58.4247 301.6809 15.69759636 96307","mean_motion":15.69759636,"eccentricity":3.91e-5,"inclination_deg":53.1582,"raan_deg":162.4529,"arg_perigee_deg":58.4247,"mean_anomaly_deg":301.6809,"bstar":-8.3917e-5,"rev_number":9630,"period_min":91.733789490813,"perigee_km":359.32127001114,"apogee_km":359.84815984925,"semimajor_km":6737.7217149302,"source":"CELESTRAK","updated_at":"2026-05-25T13:38:19.360171Z"}}}